EW5657 Weather Reports


time (UTC)temp
F
wind
direction
speed
knots
gust
knots
rain 1hr
in
rain 24hr
in
rain mn
in
humidity
%
barometer
mb
20260904102030 60 19 6.1 13.9 0.00 0.00 0.00 72 1014.1
20260904101530 60 342 5.2 13.9 0.00 0.00 0.00 72 1014.0
20260904101030 60 340 5.2 14.8 0.00 0.00 0.00 72 1014.1
20260904100529 60 316 5.2 14.8 0.00 0.00 0.00 71 1014.2
20260904100028 60 17 6.1 12.2 0.00 0.00 0.00 71 1014.1
20260904095535 60 347 5.2 13.0 0.00 0.00 0.00 69 1014.3
20260904095529 60 321 6.1 13.0 0.00 0.00 0.00 70 1014.1
20260904094525 60 335 5.2 13.0 0.00 0.00 0.00 68 1014.4
20260904094027 60 326 5.2 13.0 0.00 0.00 0.00 68 1014.4
20260904093525 60 340 6.1 13.9 0.00 0.00 0.00 67 1014.5
20260904093026 60 339 6.1 13.9 0.00 0.00 0.00 67 1014.4
20260904092527 60 346 6.1 13.9 0.00 0.00 0.00 67 1014.4
20260904092026 60 358 7.0 13.9 0.00 0.00 0.00 67 1014.5
20260904091526 60 339 7.0 14.8 0.00 0.00 0.00 67 1014.5
20260904091028 60 0 6.1 15.6 0.00 0.00 0.00 67 1014.3
20260904090526 60 351 6.1 15.6 0.00 0.00 0.00 67 1014.3
20260904090027 60 355 6.1 14.8 0.00 0.00 0.00 67 1014.1
20260904085530 59 289 5.2 15.6 0.00 0.00 0.00 66 1014.5
20260904085524 59 358 5.2 15.6 0.00 0.00 0.00 67 1014.4
20260904084529 59 341 5.2 13.0 0.00 0.00 0.00 66 1014.3
20260904084523 59 43 5.2 10.4 0.00 0.00 0.00 66 1014.4
20260904083525 59 349 6.1 13.0 0.00 0.00 0.00 66 1014.5
20260904083030 59 345 5.2 12.2 0.00 0.00 0.00 66 1014.6
20260904083024 59 12 6.1 12.2 0.00 0.00 0.00 66 1014.5
20260904082652 59 359 5.2 12.2 0.00 0.00 0.00 66 1014.5
20260904081532 60 16 5.2 13.0 0.00 0.00 0.00 65 1014.6
20260904081525 60 15 5.2 13.0 0.00 0.00 0.00 65 1014.6
20260904080521 60 335 7.8 16.5 0.00 0.00 0.00 64 1014.7
20260904080023 60 0 8.7 16.5 0.00 0.00 0.00 64 1014.7
20260904075520 60 322 7.8 15.6 0.00 0.00 0.00 64 1014.9
20260904075021 60 300 7.0 16.5 0.00 0.00 0.00 64 1014.9
20260904074519 60 347 6.1 16.5 0.00 0.00 0.00 64 1015.0
20260904074027 60 357 5.2 12.2 0.00 0.00 0.00 63 1015.3
20260904074020 60 358 5.2 13.0 0.00 0.00 0.00 63 1015.2
20260904073028 60 324 7.0 16.5 0.00 0.00 0.00 62 1015.2
20260904073021 60 12 7.0 14.8 0.00 0.00 0.00 62 1015.2
20260904072023 60 326 7.0 16.5 0.00 0.00 0.00 62 1015.2
20260904071517 61 22 7.8 16.5 0.00 0.00 0.00 62 1015.1
20260904071019 61 299 7.8 16.5 0.00 0.00 0.00 61 1015.2
20260904070522 61 358 7.0 16.5 0.00 0.00 0.00 61 1015.3
20260904070020 61 344 6.1 12.2 0.00 0.00 0.00 60 1015.3
20260904065519 61 339 6.1 13.0 0.00 0.00 0.00 61 1015.3
20260904065018 61 315 7.0 13.0 0.00 0.00 0.00 60 1015.4
20260904064332 62 345 7.0 18.2 0.00 0.00 0.00 59 1015.5
20260904064310 62 353 7.0 18.2 0.00 0.00 0.00 59 1015.4
20260904063644 62 333 7.8 17.4 0.00 0.00 0.00 59 1015.5
20260904062523 62 348 6.1 11.3 0.00 0.00 0.00 59 1015.7
20260904062517 62 311 7.0 17.4 0.00 0.00 0.00 59 1015.7
20260904061523 62 4 7.0 14.8 0.00 0.00 0.00 58 1016.0
20260904061517 62 306 7.0 13.9 0.00 0.00 0.00 59 1015.9
20260904060517 62 314 6.1 14.8 0.00 0.00 0.00 58 1016.0
20260904060017 62 355 6.1 15.6 0.00 0.00 0.00 58 1016.0
20260904055517 62 351 6.1 15.6 0.00 0.00 0.00 58 1016.1
20260904055017 62 341 6.1 12.2 0.00 0.00 0.00 58 1016.2
20260904054519 62 305 5.2 10.4 0.00 0.00 0.00 58 1016.2
20260904054017 62 345 5.2 13.0 0.00 0.00 0.00 57 1016.3
20260904053517 62 6 6.1 13.0 0.00 0.00 0.00 57 1016.2
20260904053019 62 326 7.0 14.8 0.00 0.00 0.00 57 1016.2
20260904052523 62 333 7.8 15.6 0.00 0.00 0.00 57 1016.5
20260904052517 62 321 7.8 15.6 0.00 0.00 0.00 57 1016.4
20260904051515 63 324 7.0 13.9 0.00 0.00 0.00 57 1016.4
20260904051015 63 330 6.1 13.9 0.00 0.00 0.00 56 1016.5
20260904050516 64 311 5.2 13.0 0.00 0.00 0.00 56 1016.4
20260904050020 64 338 6.1 12.2 0.00 0.00 0.00 55 1016.4
20260904050015 64 13 5.2 12.2 0.00 0.00 0.00 55 1016.3
20260904045643 64 314 6.1 12.2 0.00 0.00 0.00 54 1016.4
20260904044516 64 303 6.1 11.3 0.00 0.00 0.00 53 1016.6
20260904044015 64 329 6.1 15.6 0.00 0.00 0.00 53 1016.4
20260904043517 64 289 6.1 17.4 0.00 0.00 0.00 52 1016.3
20260904043017 64 4 6.1 17.4 0.00 0.00 0.00 52 1016.5
20260904042517 64 291 6.1 13.9 0.00 0.00 0.00 52 1016.4
20260904042016 64 0 6.1 14.8 0.00 0.00 0.00 52 1016.4
20260904041517 64 322 6.1 14.8 0.00 0.00 0.00 52 1016.4
20260904041013 64 351 6.1 14.8 0.00 0.00 0.00 51 1016.3
20260904040514 64 304 5.2 14.8 0.00 0.00 0.00 50 1016.3
20260904040013 64 324 5.2 10.4 0.00 0.00 0.00 50 1016.4
20260904035513 64 350 5.2 10.4 0.00 0.00 0.00 51 1016.4
20260904035013 64 345 3.5 10.4 0.00 0.00 0.00 51 1016.6
20260904034510 64 348 2.6 11.3 0.00 0.00 0.00 51 1016.6
20260904034013 63 328 4.3 11.3 0.00 0.00 0.00 52 1016.8
20260904033512 63 310 5.2 11.3 0.00 0.00 0.00 51 1016.9
20260904033012 63 296 5.2 11.3 0.00 0.00 0.00 51 1016.9
20260904033007 62 310 6.1 11.3 0.00 0.00 0.00 51 1017.1
20260904032612 63 330 5.2 10.4 0.00 0.00 0.00 50 1017.0
20260904031505 62 339 4.3 11.3 0.00 0.00 0.00 52 1017.2
20260904031006 61 310 4.3 8.7 0.00 0.00 0.00 54 1017.3
20260904030506 61 299 4.3 10.4 0.00 0.00 0.00 53 1017.4
20260904030006 61 345 2.6 10.4 0.00 0.00 0.00 53 1017.5
20260904025505 61 293 2.6 8.7 0.00 0.00 0.00 53 1017.6
20260904025011 62 292 2.6 9.6 0.00 0.00 0.00 53 1017.7
20260904025005 61 289 2.6 8.7 0.00 0.00 0.00 53 1017.7
20260904024003 61 337 4.3 12.2 0.00 0.00 0.00 54 1017.7
20260904023504 60 289 5.2 12.2 0.00 0.00 0.00 53 1017.9
20260904023003 60 18 5.2 11.3 0.00 0.00 0.00 51 1017.9
20260904022503 61 308 4.3 11.3 0.00 0.00 0.00 51 1018.1
20260904022004 61 322 3.5 10.4 0.00 0.00 0.00 51 1018.2
20260904021502 61 301 6.1 13.0 0.00 0.00 0.00 53 1018.3
20260904021004 60 317 7.0 14.8 0.00 0.00 0.00 53 1018.5
20260904020504 60 303 7.0 14.8 0.00 0.00 0.00 53 1018.5
20260904020004 60 349 7.0 14.8 0.00 0.00 0.00 52 1018.6
20260904015504 59 308 6.1 11.3 0.00 0.00 0.00 54 1018.8
20260904015009 60 304 5.2 10.4 0.00 0.00 0.00 54 1018.8
20260904015002 59 306 6.1 11.3 0.00 0.00 0.00 54 1018.7
20260904014000 60 340 5.2 11.3 0.00 0.00 0.00 54 1018.8
20260904013501 60 293 5.2 12.2 0.00 0.01 0.00 55 1018.8
20260904013002 59 353 5.2 13.0 0.00 0.01 0.00 54 1018.9
20260904012504 59 347 5.2 13.0 0.00 0.03 0.00 54 1018.9
20260904012004 58 289 6.1 11.3 0.00 0.03 0.00 55 1018.9
20260904011502 58 316 5.2 11.3 0.00 0.03 0.00 53 1019.0
20260904011002 59 350 4.3 11.3 0.00 0.03 0.00 54 1019.1
20260904010502 58 300 5.2 9.6 0.00 0.03 0.00 54 1019.1
20260904010001 58 343 6.1 14.8 0.00 0.03 0.00 53 1019.4
20260904005500 58 323 6.1 14.8 0.00 0.03 0.00 52 1019.6
20260904005002 58 330 6.1 12.2 0.00 0.03 0.00 52 1019.8
20260904004501 58 306 5.2 11.3 0.00 0.03 0.00 52 1019.7
20260904004002 58 318 6.1 12.2 0.00 0.03 0.00 53 1019.9
20260904003501 58 299 7.0 12.2 0.00 0.03 0.00 52 1020.0
20260904003003 58 314 6.1 12.2 0.00 0.03 0.00 53 1020.1
20260904002501 58 304 6.1 13.0 0.00 0.04 0.00 52 1020.1
20260904002001 58 301 7.0 13.0 0.00 0.04 0.00 53 1020.1
20260904001458 58 19 7.0 13.0 0.00 0.04 0.00 54 1020.1
20260904001001 58 315 5.2 13.0 0.00 0.04 0.00 54 1020.2
20260904000457 58 306 5.2 12.2 0.00 0.04 0.00 54 1020.2
20260904000004 57 297 6.1 13.9 0.00 0.05 0.00 55 1020.1
20260903235958 57 302 6.1 13.9 0.00 0.05 0.00 56 1020.2
20260903235624 57 289 4.3 13.9 0.00 0.05 0.00 56 1020.4
20260903234504 57 318 5.2 12.2 0.00 0.05 0.00 59 1020.2
20260903234458 57 334 4.3 12.2 0.00 0.05 0.00 58 1020.2
20260903233454 56 313 5.2 12.2 0.00 0.05 0.00 59 1020.4
20260903232954 56 355 6.1 12.2 0.00 0.05 0.00 62 1020.7
20260903232455 55 298 5.2 13.0 0.00 0.05 0.00 62 1020.8
20260903231954 55 310 4.3 13.0 0.00 0.05 0.00 62 1020.8
20260903231454 55 312 4.3 7.8 0.00 0.05 0.00 63 1020.8
20260903230954 55 306 5.2 9.6 0.00 0.05 0.00 64 1020.7
20260903230456 54 326 5.2 9.6 0.00 0.05 0.00 64 1020.8
20260903225955 54 324 4.3 8.7 0.00 0.05 0.00 65 1020.7
20260903225456 54 292 4.3 7.8 0.00 0.05 0.00 66 1020.7
20260903224953 53 313 3.5 7.0 0.00 0.05 0.00 67 1020.7
20260903224452 53 326 2.6 7.0 0.00 0.05 0.00 68 1020.8
20260903223958 52 324 2.6 7.0 0.00 0.05 0.00 70 1020.8
20260903223952 53 353 2.6 7.0 0.00 0.05 0.00 69 1020.8
20260903222954 52 339 1.7 5.2 0.00 0.05 0.00 71 1020.7
20260903222454 51 332 1.7 5.2 0.00 0.05 0.00 73 1020.5
20260903221954 51 351 1.7 5.2 0.00 0.05 0.00 73 1020.5
20260903221452 50 348 0.9 5.2 0.00 0.05 0.00 74 1020.4
20260903220954 50 342 0.9 4.3 0.00 0.05 0.00 76 1020.4
20260903220453 49 341 0.9 4.3 0.00 0.05 0.00 76 1020.4
20260903215954 49 337 0.9 4.3 0.00 0.05 0.00 77 1020.3
20260903215452 49 337 0.0 4.3 0.00 0.05 0.00 78 1020.2
20260903214953 48 336 0.0 0.9 0.00 0.05 0.00 79 1020.2
20260903214452 48 335 0.0 0.9 0.00 0.05 0.00 79 1020.2
20260903213958 47 335 0.0 1.7 0.00 0.05 0.00 79 1020.1
20260903213954 48 335 0.0 1.7 0.00 0.05 0.00 79 1020.2
20260903212952 47 335 0.0 1.7 0.00 0.05 0.00 79 1020.0
20260903212452 47 335 0.0 1.7 0.00 0.05 0.00 80 1020.0
20260903211958 47 335 0.0 0.9 0.00 0.05 0.00 80 1019.9
20260903211954 47 335 0.0 1.7 0.00 0.05 0.00 80 1019.9
20260903211615 47 334 0.0 0.9 0.00 0.05 0.00 80 1019.9
20260903210452 47 334 0.0 2.6 0.00 0.05 0.00 80 1019.9
20260903205954 47 334 0.0 2.6 0.00 0.05 0.00 80 1019.8
20260903205452 47 334 0.0 2.6 0.00 0.05 0.00 80 1019.7
20260903204952 47 333 0.0 1.7 0.00 0.05 0.00 80 1019.7
20260903204453 47 333 0.0 1.7 0.00 0.05 0.00 81 1019.8
20260903203952 47 333 0.0 1.7 0.00 0.05 0.00 81 1019.7
20260903203450 47 332 0.0 2.6 0.00 0.05 0.00 81 1019.7
20260903202950 47 331 0.9 3.5 0.00 0.05 0.00 81 1019.7
20260903202451 47 330 0.9 3.5 0.00 0.05 0.00 81 1019.6
20260903201956 47 326 0.0 2.6 0.00 0.05 0.00 81 1019.5
20260903201950 47 327 0.0 2.6 0.00 0.05 0.00 81 1019.6
20260903201617 47 325 0.0 2.6 0.00 0.05 0.00 81 1019.5
20260903200452 47 324 0.0 0.9 0.00 0.05 0.00 81 1019.6
20260903195951 47 324 0.0 0.9 0.00 0.05 0.00 81 1019.5
20260903195451 47 324 0.0 0.0 0.00 0.05 0.00 81 1019.5
20260903194951 47 324 0.0 0.0 0.00 0.05 0.00 81 1019.5
20260903194449 47 324 0.0 0.9 0.00 0.05 0.00 81 1019.5
20260903193949 47 324 0.0 0.9 0.00 0.05 0.00 81 1019.5
20260903193456 47 324 0.0 1.7 0.00 0.05 0.00 82 1019.5
20260903193450 47 324 0.0 0.9 0.00 0.05 0.00 82 1019.5
20260903192451 47 324 0.0 1.7 0.00 0.05 0.00 82 1019.5
20260903191950 47 324 0.0 1.7 0.00 0.05 0.00 82 1019.5
20260903191449 47 324 0.0 0.0 0.00 0.05 0.00 82 1019.5
20260903190951 47 324 0.0 0.0 0.00 0.05 0.00 82 1019.5
20260903190456 47 324 0.0 0.0 0.00 0.05 0.00 82 1019.4
20260903190452 47 324 0.0 0.0 0.00 0.05 0.00 82 1019.5
20260903190115 47 324 0.0 0.0 0.00 0.05 0.00 82 1019.4
20260903184950 47 324 0.0 0.9 0.00 0.05 0.00 82 1019.4
20260903184456 47 324 0.0 0.9 0.00 0.05 0.00 81 1019.4
20260903184450 47 324 0.0 0.9 0.00 0.05 0.00 82 1019.4
20260903183449 48 324 0.0 0.0 0.00 0.05 0.00 81 1019.4
20260903182957 48 324 0.0 0.9 0.00 0.05 0.00 81 1019.4
20260903182949 48 324 0.0 0.0 0.00 0.05 0.00 81 1019.4
20260903181947 48 324 0.0 0.9 0.00 0.05 0.00 81 1019.4
20260903181450 48 324 0.0 0.0 0.00 0.05 0.00 81 1019.4
20260903180948 48 324 0.0 0.0 0.00 0.05 0.00 81 1019.3
20260903180449 48 324 0.0 0.0 0.00 0.05 0.00 81 1019.3
20260903175948 48 324 0.0 0.0 0.00 0.05 0.00 81 1019.3
20260903175448 48 324 0.0 0.0 0.00 0.05 0.00 81 1019.3
20260903174947 49 324 0.0 0.0 0.00 0.05 0.00 80 1019.3
20260903174446 49 324 0.0 0.0 0.00 0.05 0.00 80 1019.3
20260903173945 49 324 0.0 0.0 0.00 0.05 0.00 79 1019.3
20260903173446 49 324 0.0 1.7 0.00 0.05 0.00 79 1019.4
20260903172945 49 324 0.0 1.7 0.00 0.05 0.00 81 1019.4
20260903172446 49 324 0.0 2.6 0.00 0.05 0.00 82 1019.4
20260903171948 49 323 0.0 2.6 0.00 0.05 0.00 82 1019.5
20260903171448 49 323 0.0 0.0 0.00 0.05 0.00 83 1019.5
20260903170946 49 323 0.0 0.0 0.00 0.05 0.00 83 1019.6
20260903165953 49 323 0.0 0.0 0.00 0.05 0.00 83 1019.6
20260903165946 49 323 0.0 0.9 0.00 0.05 0.00 83 1019.6
20260903164945 49 323 0.0 0.0 0.00 0.05 0.00 83 1019.7
20260903164445 49 323 0.0 0.0 0.00 0.05 0.00 83 1019.8
20260903163944 49 323 0.0 0.9 0.00 0.05 0.00 82 1019.8
20260903163441 49 323 0.0 0.9 0.00 0.05 0.00 82 1019.8
20260903162944 49 323 0.0 0.0 0.00 0.05 0.00 82 1019.9
20260903162443 49 323 0.0 0.9 0.00 0.05 0.00 82 1020.0
20260903161941 50 323 0.0 2.6 0.00 0.05 0.00 82 1020.0
20260903161440 50 323 0.0 2.6 0.00 0.05 0.00 81 1020.0
20260903160940 50 323 0.0 0.9 0.00 0.05 0.00 81 1020.0
20260903160438 50 323 0.0 0.9 0.00 0.05 0.00 80 1020.1
20260903155939 50 323 0.0 0.0 0.00 0.05 0.00 80 1020.1
20260903155439 51 323 0.0 0.0 0.00 0.05 0.00 80 1020.1
20260903154938 51 323 0.0 0.0 0.00 0.05 0.00 79 1020.1
20260903154439 51 323 0.0 0.0 0.00 0.05 0.00 79 1020.1
20260903153943 52 323 0.0 3.5 0.00 0.05 0.00 78 1020.2
20260903153937 51 323 0.0 0.0 0.00 0.05 0.00 78 1020.1
20260903153543 51 323 0.0 3.5 0.00 0.05 0.00 78 1020.2
20260903152435 52 322 0.0 0.0 0.00 0.05 0.00 77 1020.2
20260903151935 52 322 0.0 0.0 0.00 0.05 0.00 76 1020.2
20260903151435 52 322 0.0 1.7 0.00 0.05 0.00 76 1020.3
20260903150936 53 322 0.0 1.7 0.00 0.05 0.00 75 1020.3
20260903150436 53 322 0.0 3.5 0.00 0.05 0.00 75 1020.2
20260903145936 53 322 0.9 3.5 0.00 0.05 0.00 75 1020.2
20260903145440 53 321 1.7 6.1 0.00 0.05 0.00 74 1020.3
20260903145434 53 322 0.9 6.1 0.00 0.05 0.00 74 1020.2
20260903144438 53 321 2.6 6.1 0.00 0.05 0.00 74 1020.2
20260903143936 53 338 2.6 7.0 0.00 0.05 0.00 75 1020.3
20260903143442 53 294 1.7 5.2 0.00 0.05 0.00 75 1020.3
20260903143434 53 295 2.6 7.0 0.00 0.05 0.00 75 1020.3
20260903142435 53 291 1.7 5.2 0.00 0.05 0.00 76 1020.3
20260903141935 53 306 1.7 6.1 0.00 0.05 0.00 76 1020.3
20260903141435 53 306 1.7 6.1 0.00 0.05 0.00 77 1020.2
20260903140941 53 317 0.9 4.3 0.00 0.05 0.00 77 1020.4
20260903140935 53 317 0.9 4.3 0.00 0.05 0.00 77 1020.4
20260903135938 53 317 0.9 6.1 0.00 0.05 0.05 77 1020.5
20260903135934 53 317 0.0 2.6 0.00 0.05 0.05 76 1020.5
20260903134934 53 317 1.7 7.0 0.00 0.05 0.05 77 1020.4
20260903134434 53 303 1.7 7.0 0.00 0.05 0.05 77 1020.4
20260903133942 53 279 0.9 3.5 0.00 0.05 0.05 77 1020.3
20260903133935 53 280 0.9 3.5 0.00 0.05 0.05 77 1020.4
20260903132932 53 278 0.0 3.5 0.00 0.05 0.05 78 1020.4
20260903132430 53 275 0.0 0.9 0.00 0.05 0.05 78 1020.4
20260903131930 53 275 0.0 0.9 0.00 0.05 0.05 78 1020.4
20260903131436 53 274 0.0 1.7 0.00 0.05 0.05 78 1020.5
20260903131430 53 275 0.0 1.7 0.00 0.05 0.05 78 1020.5
20260903130430 53 274 0.0 3.5 0.00 0.05 0.05 78 1020.4
20260903125929 53 274 0.9 5.2 0.00 0.05 0.05 78 1020.5
20260903125429 53 274 0.9 5.2 0.00 0.05 0.05 79 1020.5
20260903124930 53 240 0.0 3.5 0.00 0.05 0.05 79 1020.5
20260903124429 53 239 0.9 3.5 0.00 0.05 0.05 79 1020.4
20260903123931 53 231 0.0 1.7 0.00 0.05 0.05 79 1020.4
20260903123926 53 231 0.0 3.5 0.00 0.05 0.05 79 1020.4
20260903122926 53 230 0.0 0.9 0.00 0.05 0.05 79 1020.4
20260903122426 53 230 0.0 0.9 0.00 0.05 0.05 79 1020.4
20260903121927 53 229 0.0 0.9 0.00 0.05 0.05 79 1020.4
20260903121426 54 229 0.0 0.9 0.00 0.05 0.05 79 1020.4
20260903120926 54 229 0.0 0.9 0.00 0.05 0.05 79 1020.4
20260903120426 54 229 0.0 0.0 0.00 0.05 0.05 79 1020.3
20260903115932 54 229 0.0 2.6 0.00 0.05 0.05 79 1020.1
20260903115926 54 229 0.0 0.9 0.00 0.05 0.05 79 1020.2
20260903114930 54 218 0.0 0.0 0.00 0.05 0.05 79 1020.1
20260903114926 54 229 0.0 2.6 0.00 0.05 0.05 79 1020.2
20260903113926 54 217 0.0 0.0 0.00 0.05 0.05 78 1020.1
20260903113426 54 217 0.0 0.0 0.00 0.05 0.05 78 1020.1
20260903112923 54 216 0.0 0.0 0.00 0.05 0.05 78 1020.0
20260903112424 55 216 0.0 0.9 0.00 0.05 0.05 78 1019.9
20260903111926 55 216 0.0 4.3 0.00 0.05 0.05 78 1019.9
20260903111426 55 210 0.0 4.3 0.00 0.05 0.05 79 1019.9
20260903110931 55 254 0.0 4.3 0.00 0.05 0.05 79 1019.5
20260903110924 55 226 0.0 3.5 0.00 0.05 0.05 79 1019.7
20260903110424 55 234 0.0 4.3 0.00 0.05 0.05 79 1019.5
20260903105426 55 234 0.9 4.3 0.00 0.05 0.05 80 1019.5
20260903104924 56 209 0.9 6.1 0.00 0.05 0.05 79 1019.5
20260903104426 56 198 1.7 7.0 0.00 0.05 0.05 79 1019.4
20260903103923 56 261 2.6 7.8 0.00 0.05 0.05 78 1019.4
20260903103424 56 193 2.6 8.7 0.00 0.05 0.05 78 1019.2
20260903102931 56 237 1.7 8.7 0.00 0.05 0.05 79 1019.1
20260903102926 56 262 2.6 8.7 0.00 0.05 0.05 79 1019.2